Location: Hall+in+Tirol
(47.2830°N, 11.5170°E)
Time: 14:02:00
(UTC+01:00)

Daily predictions for brighter satellites

Satellite Brightness Start Highest point End
(mag) Time Altitude Azimuth Time Altitude Azimuth Time Altitude Azimuth
ATLAS 2AS CENTAUR R/B 3.8 16:43:02 10° S 16:49:50 35° ESE 16:56:56 10° NE
ATLAS 3B R/B 3.0 16:46:02 10° NNW 16:52:31 44° NE 16:58:44 10° ESE
NOSS 2-3 (E) 4.3 16:48:19 10° SSW 16:52:48 49° ESE 16:58:05 10° NE
Cosmos 1656 Rocket 3.7 16:48:32 10° SSW 16:54:03 74° ESE 16:59:32 10° NNE
Cosmos 1975 Rocket 3.9 16:50:05 10° SSE 16:54:06 33° E 16:58:07 10° NNE
Cosmos 1655 Rocket 4.4 16:49:16 10° N 16:55:19 43° ENE 17:01:22 10° SE
Cosmos 389 Rocket 3.4 16:53:05 10° NNE 16:56:05 26° ENE 16:59:03 10° SE
Cosmos 2227 Rocket 2.9 16:51:59 10° NNW 16:57:02 31° NE 17:02:02 10° ESE
Atlas Centaur 2 4.5 16:55:49 10° SSW 16:57:46 12° S 16:59:36 10° SSE
Okean 1 Rocket 3.2 16:53:50 10° N 16:58:20 87° W 17:02:50 10° S
Cosmos 2219 3.2 16:55:17 10° NNW 17:00:56 72° ENE 17:06:33 10° SE
Cosmos 2195 Rocket 4.5 16:55:15 10° N 17:01:27 72° E 17:07:32 10° SSE
Cosmos 990 Rocket 4.4 16:58:44 10° S 17:03:33 42° ESE 17:08:24 10° NE
Cosmos 1743 3.6 17:01:13 10° NNE 17:04:39 29° ENE 17:08:04 10° SE
Cosmos 2026 Rocket 4.1 16:58:29 10° N 17:04:53 68° E 17:11:10 10° SSE
NOSS 3-1 (A) 4.0 16:59:34 10° WSW 17:05:21 54° NW 17:11:59 10° NE
Cosmos 1674 Rocket 4.2 17:02:33 10° SSW 17:06:49 58° WNW 17:11:05 10° N
USA 215 3.6 17:01:03 10° SE 17:07:35 74° SW 17:14:08 10° NW
Cosmos 1378 Rocket 3.7 17:08:31 10° S 17:12:58 86° WNW 17:17:27 10° N
Okean 3 3.9 17:09:44 10° SSW 17:13:53 65° WNW 17:18:06 10° N
ISS -3.9 17:11:53 10° WNW 17:15:12 84° NNE 17:18:30 10° ESE
CORIOLIS 4.3 17:10:17 10° SE 17:15:30 51° ENE 17:20:43 10° N
Abrixas rocket 3.0 17:12:37 10° SW 17:15:42 41° SSE 17:18:35 11° E
USA 161 2.2 17:20:48 10° N 17:23:34 54° WNW 17:26:27 10° SSW
Cosmos 2297 Rocket 2.6 17:18:54 10° NNW 17:24:15 41° NE 17:29:34 10° ESE
Cosmos 2150 Rocket 4.2 17:19:21 10° S 17:24:43 59° ESE 17:30:04 10° NNE
Cosmos 1943 Rocket 3.6 17:21:08 10° WSW 17:26:12 34° NW 17:31:21 10° NNE
Cosmos 1500 4.1 17:24:15 10° NNW 17:27:57 51° W 17:31:36 10° S
NOSS 2-3 (C) 4.0 17:23:36 10° SW 17:28:20 88° SE 17:33:49 11° NE
Cosmos 158 Rocket 4.2 17:26:34 10° NNW 17:31:30 44° ENE 17:36:16 10° SE
Okean 1 3.2 17:27:53 10° S 17:31:52 88° E 17:35:51 10° N
Cosmos 1271 Rocket 2.7 17:29:17 10° N 17:33:01 57° ENE 17:36:47 10° SSE
CENTAUR R/B 3.8 17:27:45 10° NW 17:34:12 30° NNE 17:39:49 15° ENE
Cosmos 1428 Rocket 4.4 17:29:30 10° N 17:35:45 83° E 17:41:53 10° S
Radarsat 4.5 17:30:42 10° SSE 17:35:53 79° ENE 17:41:07 10° NNW
Meteor 1-18 Rocket 4.4 17:32:04 10° SSW 17:37:39 80° WNW 17:43:21 10° N
SPOT 3 Rocket 4.1 17:35:54 10° SE 17:40:30 34° ENE 17:45:07 10° N
Meteor 1-13 Rocket 4.5 17:35:29 10° SSE 17:40:47 47° E 17:46:13 10° NNE
Meteor 2-4 Rocket 4.1 17:37:49 10° SSE 17:42:46 37° E 17:47:40 10° NNE
ERS-2 2.9 17:40:26 10° SE 17:43:40 30° ENE 17:46:56 10° N
Cosmos 1975 3.3 17:40:17 10° NNW 17:44:17 63° W 17:48:17 10° S
Cosmos 1484 Rocket 3.2 17:41:50 10° S 17:45:50 69° W 17:49:51 10° NNW
CZ-2C R/B 4.0 17:41:32 10° NNE 17:46:05 50° E 17:50:41 10° S
OPS 6432 4.2 17:45:04 10° SW 17:48:35 90° ESE 17:50:17 24° NE
AQUARIUS 4.4 17:46:25 10° S 17:50:54 72° WSW 17:55:24 10° NNW
Cosmos 2279 Rocket 4.0 17:48:03 10° S 17:54:19 86° W 18:00:38 10° N
USA 238 DEB 3.8 17:47:29 10° NW 17:54:38 88° NE 18:01:50 10° SE
USA 238 3.8 17:47:35 10° NW 17:54:44 88° NE 18:01:56 10° SE
SMAP 3.5 17:50:33 10° S 17:55:10 64° WSW 17:59:49 10° NNW
Cosmos 1455 Rocket 3.0 17:52:11 10° N 17:56:39 89° E 18:01:02 10° S
PKM 4.2 17:51:10 10° WSW 17:57:15 63° NNW 17:58:52 26° NE
Cosmos 2369 4.2 17:53:13 10° S 17:58:23 38° ESE 18:01:19 22° NE
Cosmos 2278 4.3 17:54:46 10° S 17:59:54 37° ESE 18:02:40 23° ENE
Cosmos 1666 2.8 17:56:38 10° NNW 18:00:24 73° W 18:04:06 10° S
Cosmos 1544 Rocket 3.7 17:56:13 10° NNW 18:00:36 78° W 18:04:55 10° S
BREEZE-M DEB (TANK) 2.6 17:58:20 10° W 18:00:40 64° N 18:02:35 28° ENE
CZ-4 R/B 1.6 17:57:48 10° S 18:01:40 69° WSW 18:05:37 10° NNW
MONITOR-E 4.3 18:00:14 10° SSE 18:03:09 46° ENE 18:06:08 10° N
Cosmos 2263 Rocket 4.1 18:01:12 10° N 18:02:51 12° NNE 18:02:51 12° NNE
Ariane Rocket 3.8 17:58:39 10° S 18:03:36 54° W 18:08:35 10° NNW
Cosmos 1269 Rocket 4.1 17:59:09 10° NNW 18:04:21 53° ENE 18:09:32 10° SE
Meteor 1-19 Rocket 4.2 18:01:14 10° S 18:06:54 83° E 18:12:44 10° NNE
ALOS 2.3 18:02:40 10° SSE 18:07:11 52° ENE 18:11:43 10° N
YAOGAN 1 2.5 18:03:13 10° SSE 18:07:33 87° WSW 18:11:55 10° NNW
Gblst 52 Del rocket 4.2 18:07:26 10° WNW 18:13:01 72° NNE 18:16:20 27° E
Cosmos 1125 Rocket 3.7 18:09:16 10° S 18:14:22 51° ESE 18:16:54 28° NE
USA 116 3.2 18:12:37 25° N 18:14:24 81° WNW 18:17:30 10° SSW
Cosmos 1937 Rocket 4.4 18:11:18 10° SW 18:16:17 46° WNW 18:21:16 10° NNE
FENGYUN 3A 3.6 18:11:33 10° SSE 18:16:51 64° ENE 18:22:10 10° N
COSMO-SKYMED 1 2.5 18:16:32 24° NNE 18:19:05 65° ESE 18:23:24 10° S
Cosmos 1048 Rocket 4.0 18:15:09 10° NNW 18:20:35 85° ENE 18:25:58 10° SSE
NOAA 12 4.0 18:16:20 10° SSE 18:21:33 69° ENE 18:26:47 10° N
Cosmos 1697 Rocket 3.2 18:18:28 10° S 18:23:31 35° ESE 18:24:05 34° E
METEOR-M 4.3 18:18:22 10° S 18:23:42 73° WSW 18:29:04 10° NNW
NOSS 3-2 (A) 3.9 18:17:30 10° NW 18:24:56 83° NE 18:33:07 10° SE
Nadezhda 2 Rocket 4.5 18:20:40 10° N 18:26:53 59° ENE 18:33:10 10° SSE
MOS 1 4.3 18:21:42 10° SSE 18:27:24 84° WSW 18:33:08 10° NNW
Cosmos 2082 3.8 18:22:12 10° NNW 18:27:50 79° WSW 18:33:26 10° SSE
NOSS 3-2 (C) 3.9 18:23:39 10° NW 18:31:03 74° NE 18:38:23 13° SE
FengYun 1-2 T 4.4 18:25:57 10° SE 18:31:18 48° ENE 18:36:44 10° N
SJ 16-02 1.2 18:30:23 10° SSW 18:34:45 73° ESE 18:35:35 56° NE
EO 1 Del DPAF 3.0 18:35:32 72° NE 18:35:51 81° ESE 18:39:40 10° SSW
DNEPR-1 R/B 4.2 18:34:14 10° NNW 18:38:58 48° NE 18:39:14 47° NE
ATLAS 2AS CENTAUR R/B 3.2 18:32:31 10° SW 18:40:24 71° NW 18:45:45 24° NNE
Cosmos 2227 Rocket 3.0 18:35:52 10° NW 18:41:20 51° WSW 18:46:46 10° S
Cosmos 372 Rocket 3.8 18:36:18 10° SSW 18:41:31 81° ESE 18:43:21 42° NNE
ATLAS 3B R/B 3.4 18:36:54 10° NW 18:43:19 50° WSW 18:49:32 10° SSE
Meteor 1-23 Rocket 4.1 18:42:17 10° S 18:48:04 87° E 18:51:57 22° NNE
ISS -1.3 18:48:57 10° W 18:51:21 19° SW 18:52:26 16° SSW
Abrixas rocket 3.6 18:48:56 10° W 18:51:03 37° W 18:51:03 37° W
NOSS 3-4 (A) 3.6 18:55:26 10° SSW 19:01:22 53° ESE 19:01:22 53° ESE
NOSS 3-4 (C) 3.6 18:55:32 10° SSW 19:01:26 52° SE 19:01:26 52° SE
Cosmos 1025 Rocket 4.1 18:58:04 10° S 19:00:33 34° S 19:00:33 34° S
Cosmos 1980 Rocket 3.3 18:58:05 10° S 19:01:06 29° SSE 19:01:06 29° SSE
Cosmos 2297 Rocket 3.6 19:03:06 10° NW 19:08:15 37° WSW 19:13:22 10° S
CENTAUR R/B 2.9 19:18:28 10° NW 19:26:14 73° NE 19:27:03 68° E
Cosmos 1656 4.2 19:23:30 10° SW 19:28:57 54° WNW 19:29:30 52° NW
Cosmos 2263 Rocket 4.3 19:43:28 10° NNW 19:44:34 16° NNW 19:44:34 16° NNW
Cosmos 1697 Rocket 4.1 20:02:02 10° SW 20:05:52 35° W 20:05:52 35° W
SJ 16-02 4.3 20:11:16 10° W 20:12:37 14° WNW 20:12:37 14° WNW
ATLAS 2AS CENTAUR R/B 4.3 20:25:53 10° W 20:32:52 31° NNW 20:33:12 31° NNW
